Siloam Springs, AR

10:31 PM CDT on March 24, 2017 (GMT -0500)
Smith

Weather History for KSLG - November, 2014

Change the Weather History Date:

Saturday, November 29, 2014

  Actual Average Record
Temperature  
Mean Temperature 61 °F -  
Max Temperature 71 °F 51 °F 71 °F (2006)
Min Temperature 51 °F 34 °F 17 °F (2003)
Degree Days  
Heating Degree Days 4    
Growing Degree Days 11 (Base 50)    
Moisture  
Dew Point 44 °F    
Average Humidity 56    
Maximum Humidity 71    
Minimum Humidity 35    
Precipitation  
Precipitation 0.00 in - - ()
Sea Level Pressure  
Sea Level Pressure 29.80 in    
Wind  
Wind Speed 19 mph (SSW)    
Max Wind Speed 29 mph    
Max Gust Speed 39 mph    
Visibility 10 miles    
Events      
Averages and records for this station are not official NWS values.
T = Trace of Precipitation, MM = Missing Value Source: NWS Daily Summary

Daily Weather History Graph

Daily Weather History Graph

Search for Another Location

Airport or City:

Trip Planner

Search our weather history database for the weather conditions in past years. The results will help you decide how hot, cold, wet, or windy it might be!

Date:

Astronomy

Nov. 29, 2014 Rise Set
Actual Time 7:08 AM CST 5:03 PM CST
Civil Twilight 6:40 AM CST 5:31 PM CST
Nautical Twilight 6:08 AM CST 6:03 PM CST
Astronomical Twilight 5:37 AM CST 6:34 PM CST
Moon 12:46 PM CST (11/29) No Moon Set
Length of Visible Light 10h 51m
Length of Day
9h 55m
First Quarter, 54% of the Moon is Illuminated
Nov 29
First Quarter
Dec 6
Full
Dec 14
Last Quarter
Dec 21
New
Dec 28
First Quarter

Hourly Weather History & Observations

Time (CST) Temp. Dew Point Humidity Pressure Visibility Wind Dir Wind Speed Gust Speed Precip Events Conditions
12:15 AM 53.6 °F 42.8 °F 67% 29.89 in 10.0 mi South 18.4 mph 23.0 mph N/A   Clear
12:35 AM 53.6 °F 42.8 °F 67% 29.89 in 10.0 mi South 18.4 mph 23.0 mph N/A   Clear
12:55 AM 53.6 °F 42.8 °F 67% 29.88 in 10.0 mi South 15.0 mph - N/A   Clear
1:35 AM 53.6 °F 42.8 °F 67% 29.86 in 10.0 mi South 18.4 mph 23.0 mph N/A   Clear
1:55 AM 53.6 °F 42.8 °F 67% 29.87 in 10.0 mi South 16.1 mph 21.9 mph N/A   Clear
2:15 AM 53.6 °F 42.8 °F 67% 29.86 in 10.0 mi South 16.1 mph 19.6 mph N/A   Clear
2:35 AM 53.6 °F 42.8 °F 67% 29.86 in 10.0 mi South 13.8 mph 18.4 mph N/A   Clear
2:55 AM 53.6 °F 42.8 °F 67% 29.86 in 10.0 mi South 13.8 mph 20.7 mph N/A   Clear
3:15 AM 53.6 °F 42.8 °F 67% 29.85 in 10.0 mi South 21.9 mph 25.3 mph N/A   Clear
3:35 AM 53.6 °F 42.8 °F 67% 29.84 in 10.0 mi South 18.4 mph 25.3 mph N/A   Clear
3:55 AM 53.6 °F 42.8 °F 67% 29.84 in 10.0 mi SSW 17.3 mph 23.0 mph N/A   Clear
4:15 AM 53.6 °F 42.8 °F 67% 29.83 in 10.0 mi South 17.3 mph 25.3 mph N/A   Clear
4:35 AM 53.6 °F 42.8 °F 67% 29.83 in 10.0 mi SSW 15.0 mph 20.7 mph N/A   Clear
4:55 AM 53.6 °F 42.8 °F 67% 29.83 in 10.0 mi South 13.8 mph 20.7 mph N/A   Clear
5:15 AM 53.6 °F 42.8 °F 67% 29.82 in 10.0 mi South 12.7 mph 24.2 mph N/A   Clear
5:35 AM 53.6 °F 42.8 °F 67% 29.82 in 10.0 mi SSW 15.0 mph 21.9 mph N/A   Clear
5:55 AM 53.6 °F 42.8 °F 67% 29.82 in 10.0 mi South 16.1 mph - N/A   Clear
6:15 AM 53.6 °F 42.8 °F 67% 29.82 in 10.0 mi South 18.4 mph 24.2 mph N/A   Clear
6:35 AM 51.8 °F 42.8 °F 71% 29.81 in 10.0 mi South 19.6 mph 25.3 mph N/A   Clear
6:55 AM 51.8 °F 42.8 °F 71% 29.81 in 10.0 mi South 17.3 mph 23.0 mph N/A   Clear
7:15 AM 51.8 °F 42.8 °F 71% 29.82 in 10.0 mi South 17.3 mph 27.6 mph N/A   Clear
7:35 AM 51.8 °F 42.8 °F 71% 29.82 in 10.0 mi South 17.3 mph 24.2 mph N/A   Clear
7:55 AM 53.6 °F 42.8 °F 67% 29.82 in 10.0 mi SSW 19.6 mph 24.2 mph N/A   Clear
8:15 AM 53.6 °F 42.8 °F 67% 29.82 in 10.0 mi SSW 19.6 mph 26.5 mph N/A   Clear
8:35 AM 55.4 °F 42.8 °F 63% 29.82 in 10.0 mi SSW 20.7 mph 34.5 mph N/A   Clear
8:55 AM 55.4 °F 42.8 °F 63% 29.82 in 10.0 mi SSW 20.7 mph 29.9 mph N/A   Clear
9:15 AM 57.2 °F 44.6 °F 63% 29.82 in 10.0 mi South 24.2 mph 29.9 mph N/A   Clear
9:35 AM 57.2 °F 44.6 °F 63% 29.82 in 10.0 mi SSW 27.6 mph 31.1 mph N/A   Clear
9:55 AM 60.8 °F 44.6 °F 55% 29.82 in 10.0 mi SSW 19.6 mph 33.4 mph N/A   Clear
10:15 AM 60.8 °F 44.6 °F 55% 29.82 in 10.0 mi SSW 24.2 mph 32.2 mph N/A   Clear
10:35 AM 62.6 °F 44.6 °F 52% 29.82 in 10.0 mi SSW 26.5 mph 33.4 mph N/A   Clear
10:55 AM 64.4 °F 44.6 °F 49% 29.81 in 10.0 mi SSW 23.0 mph 34.5 mph N/A   Clear
11:15 AM 64.4 °F 44.6 °F 49% 29.80 in 10.0 mi SSW 19.6 mph 32.2 mph N/A   Clear
11:35 AM 66.2 °F 44.6 °F 46% 29.78 in 10.0 mi SSW 26.5 mph 33.4 mph N/A   Clear
11:55 AM 68.0 °F 44.6 °F 43% 29.78 in 10.0 mi SSW 27.6 mph 39.1 mph N/A   Clear
12:15 PM 68.0 °F 44.6 °F 43% 29.77 in 10.0 mi SSW 23.0 mph 38.0 mph N/A   Clear
12:35 PM 69.8 °F 44.6 °F 40% 29.75 in 10.0 mi SSW 27.6 mph 32.2 mph N/A   Clear
12:55 PM 69.8 °F 44.6 °F 40% 29.75 in 10.0 mi SSW 24.2 mph 31.1 mph N/A   Clear
1:15 PM 71.6 °F 42.8 °F 35% 29.75 in 10.0 mi SSW 23.0 mph 33.4 mph N/A   Clear
1:35 PM 71.6 °F 44.6 °F 38% 29.74 in 10.0 mi SSW 24.2 mph 32.2 mph N/A   Clear
1:55 PM 71.6 °F 42.8 °F 35% 29.74 in 10.0 mi SSW 18.4 mph 34.5 mph N/A   Clear
2:15 PM 71.6 °F 44.6 °F 38% 29.74 in 10.0 mi SSW 28.8 mph 33.4 mph N/A   Clear
2:35 PM 71.6 °F 44.6 °F 38% 29.74 in 10.0 mi SSW 21.9 mph 32.2 mph N/A   Clear
2:55 PM 71.6 °F 44.6 °F 38% 29.74 in 10.0 mi SSW 18.4 mph 34.5 mph N/A   Clear
3:15 PM 71.6 °F 44.6 °F 38% 29.74 in 10.0 mi SSW 18.4 mph 28.8 mph N/A   Clear
3:35 PM 69.8 °F 44.6 °F 40% 29.74 in 10.0 mi SSW 23.0 mph 29.9 mph N/A   Clear
3:55 PM 69.8 °F 44.6 °F 40% 29.74 in 10.0 mi SSW 19.6 mph 33.4 mph N/A   Clear
4:15 PM 69.8 °F 44.6 °F 40% 29.74 in 10.0 mi SSW 19.6 mph 26.5 mph N/A   Clear
4:35 PM 69.8 °F 44.6 °F 40% 29.75 in 10.0 mi SSW 18.4 mph 26.5 mph N/A   Clear
4:55 PM 66.2 °F 44.6 °F 46% 29.75 in 10.0 mi South 19.6 mph 24.2 mph N/A   Clear
5:15 PM 66.2 °F 44.6 °F 46% 29.76 in 10.0 mi SSW 20.7 mph 27.6 mph N/A   Clear
5:35 PM 64.4 °F 42.8 °F 45% 29.76 in 10.0 mi South 17.3 mph - N/A   Clear
5:55 PM 64.4 °F 42.8 °F 45% 29.77 in 10.0 mi South 18.4 mph 24.2 mph N/A   Clear
6:15 PM 64.4 °F 42.8 °F 45% 29.77 in 10.0 mi South 19.6 mph 24.2 mph N/A   Clear
6:35 PM 62.6 °F 42.8 °F 48% 29.77 in 10.0 mi South 16.1 mph - N/A   Clear
6:55 PM 62.6 °F 44.6 °F 52% 29.78 in 10.0 mi SSW 20.7 mph 26.5 mph N/A   Clear
7:15 PM 64.4 °F 44.6 °F 49% 29.78 in 10.0 mi SSW 21.9 mph 29.9 mph N/A   Clear
7:35 PM 62.6 °F 46.4 °F 55% 29.78 in 10.0 mi SSW 21.9 mph - N/A   Clear
7:55 PM 62.6 °F 46.4 °F 55% 29.78 in 10.0 mi SSW 21.9 mph 29.9 mph N/A   Clear
8:15 PM 62.6 °F 46.4 °F 55% 29.78 in 10.0 mi SSW 23.0 mph 27.6 mph N/A   Clear
8:35 PM 62.6 °F 46.4 °F 55% 29.79 in 10.0 mi SSW 17.3 mph 25.3 mph N/A   Clear
8:55 PM 62.6 °F 46.4 °F 55% 29.79 in 10.0 mi SSW 18.4 mph 25.3 mph N/A   Clear
9:15 PM 62.6 °F 46.4 °F 55% 29.78 in 10.0 mi SSW 19.6 mph 27.6 mph N/A   Clear
9:35 PM 62.6 °F 48.2 °F 59% 29.79 in 10.0 mi SSW 21.9 mph 29.9 mph N/A   Clear
9:55 PM 62.6 °F 48.2 °F 59% 29.79 in 10.0 mi SSW 23.0 mph 29.9 mph N/A   Clear
10:15 PM 62.6 °F 48.2 °F 59% 29.79 in 10.0 mi SSW 21.9 mph 26.5 mph N/A   Clear
10:35 PM 62.6 °F 48.2 °F 59% 29.80 in 10.0 mi SSW 20.7 mph 24.2 mph N/A   Clear
10:55 PM 62.6 °F 48.2 °F 59% 29.80 in 10.0 mi SSW 23.0 mph 31.1 mph N/A   Clear
11:15 PM 62.6 °F 48.2 °F 59% 29.80 in 10.0 mi SSW 27.6 mph 35.7 mph N/A   Clear
11:35 PM 62.6 °F 50.0 °F 63% 29.80 in 10.0 mi SSW 26.5 mph 34.5 mph N/A   Clear
11:55 PM 62.6 °F 50.0 °F 63% 29.80 in 10.0 mi SSW 20.7 mph 34.5 mph N/A   Clear